STARLINK-1513, 45786

Orbit data source: Space-Track

STARLINK-1513, 45786 is a payload satellite owned by SpaceX/Seattle (US) in LEO that was launched on Sat, 13 Jun 2020 UTC via an FALCON 9 launch vehicle from the Air Force Eastern Test Range (AFETR). Payload-class satellites include a variety of spacecraft equipped with specific instruments for various scientific and technological missions. These include communications satellites like Starlink; space stations such as the ISS; scientific satellites like the Hubble; Earth observation satellites from companies like Planet Labs, Umbra, and HawkEye 360; GPS; miniature CubeSats for education and research; and military/defense satellites.

Loading next visibility...
Identifier
45786, 2020-038BJ
Orbit
LEO
Country
Flag of USUS
Related business
Manufacturer
SpaceX/Seattle
Mission
Operational Commercial Communications
Bus & Motor
STARLINK, Unknown motor
Mass
260 kg wet, ~248 kg dry
Launch date (UTC)
2020-06-13 (6 years ago)
Launch vehicle
FALCON 9
Launch site
Air Force Eastern Test Range (AFETR)
Object type
Payload
Rocket body
Debris
Shape & HBR
Box + 1 Pan, 10.1 m
Radar Cross Section
13.562 m², Large (>1 m²)

Expand to show TLE details & history
Last TLE update: 14 hours ago

TLE from 14 hours ago
0 STARLINK-1513
1 45786U 20038BJ  26255.14788335  .00036196  00000-0  10499-2 0  9992
2 45786  53.1589  42.7599 0000738 296.1897  63.9030 15.35208978345426
Epoch: 2026-09-12T03:32Z
TLE epoch observation values (Epoch: 2026-09-12T03:32:57.121Z)
Latitude
-0.00002°
Longitude
-1.63917°
Altitude
460.979 km
Speed
7.638 km/s
True Right ascension
02h 51m 02s
True Declination
0° 00' 00"
Sunlit
Object was in full shadow at epoch
Visualization orbit readout
Latitude
Unknown
Longitude
Unknown
Altitude
Unknown
Speed
Unknown
Apparent Right ascension
Unknown
Apparent Declination
Unknown
Sunlit
N/A
Visualization observer readout
Local Sidereal Time
09:51:53
Azimuth
Unknown
Elevation
Unknown
Doppler factor
Unknown
Orbital elements
Apogee altitude
461.062 km
Perigee altitude
460.052 km
Semi-major axis
6,838.694 km
Eccentricity
0.00007
Inclination
53.1589°
RAAN
42.7599°
Arg. of periapsis
296.1897°
True anomaly
63.91059°
Mean anomaly
63.903°
Eccentric anomaly
63.9068°
Mean motion
3.83781 °/min
Orbital period
93.8 mins
BSTAR
0.0010499
Loading maneuver chart data...
Computing Atmospheric mass density...

Documentation

Showing up to 5 results
|